ドゥ・トイト彗星

66P/du Toit (2018)

English version
Home page
Updated on April 4, 2021

---------------------------------------------------------------------

・ プロフィール

・ 写真集

・ 軌道要素

Epoch 2018 May 2.0 TT = JDT 2458240.5                                           
T 2018 May 19.16178 TT                                  Rudenko                 
q   1.2901099            (2000.0)            P               Q                  
n   0.06616912     Peri.  257.21265     +0.13916428     +0.98304323             
a   6.0538612      Node    21.89630     -0.73799191     +0.18336013             
e   0.7868947      Incl.   18.67516     -0.66030390     +0.00225080             
P  14.9                                                                         
From 640 observations 1944 June 12-2018 Nov. 10, mean residual 0".7.            
     Nongravitational parameters A1 = +0.04, A2 = -0.0099.                      

・ 星図

・ 光度変化

        m1 = 13.0 + 5 logΔ + 15.0 log r  [   ,-58]  (              〜2018年 3月22日)
        m1 =  1.5 + 5 logΔ + 80   log r  [-58,  0]  (2018年 3月22日〜2018年 5月19日)
        m1 =  7.0 + 5 logΔ + 30.0 log r  [  0,   ]  (2018年 5月19日〜              )

---------------------------------------------------------------------

軌道要素はM.P.E.C. 2021-F20に掲載されたものです。
星図はステラナビゲータ Ver.8 (アストロアーツ) で作成したものです。
光度グラフはComet for Windowsで作成したものです。

---------------------------------------------------------------------

Copyright(C) Seiichi Yoshida (comet@aerith.net). All rights reserved.